Weather History for KMIC - July, 2013

Change the Weather History Date:

Saturday, July 27, 2013

  Actual Average Record
Temperature  
Mean Temperature 57 °F -  
Max Temperature 64 °F 81 °F 93 °F (2010)
Min Temperature 52 °F 60 °F 51 °F (2005)
Degree Days  
Heating Degree Days 8    
Growing Degree Days 7 (Base 50)    
Moisture  
Dew Point 46 °F    
Average Humidity 68    
Maximum Humidity 80    
Minimum Humidity 52    
Precipitation  
Precipitation 0.04 in - - ()
Sea Level Pressure  
Sea Level Pressure 30.01 in    
Wind  
Wind Speed 10 mph (NNW)    
Max Wind Speed 20 mph    
Max Gust Speed 25 mph    
Visibility 10 miles    
Events Rain    
Averages and records for this station are not official NWS values.
T = Trace of Precipitation, MM = Missing Value Source: NWS Daily Summary

Daily Weather History Graph

Daily Weather History Graph

Search for Another Location

Airport or City:

Trip Planner

Search our weather history database for the weather conditions in past years. The results will help you decide how hot, cold, wet, or windy it might be!

Date:

Astronomy

Jul. 27, 2013 Rise Set
Actual Time 5:53 AM CDT 8:45 PM CDT
Civil Twilight 5:18 AM CDT 9:20 PM CDT
Nautical Twilight 4:34 AM CDT 10:03 PM CDT
Astronomical Twilight 3:43 AM CDT 10:55 PM CDT
Moon 11:13 PM CDT (7/27) 11:53 AM CDT (7/27)
Length of Visible Light 16h 01m
Length of Day
14h 52m
Waning Gibbous, 70% of the Moon is Illuminated
Jul 27
Waning Gibbous
Jul 29
Last Quarter
Aug 6
New
Aug 14
First Quarter
Aug 20
Full

Hourly Weather History & Observations

Time (CDT) Temp. Dew Point Humidity Pressure Visibility Wind Dir Wind Speed Gust Speed Precip Events Conditions
12:53 AM 55.9 °F 44.1 °F 64% 30.08 in 10.0 mi North 10.4 mph - N/A   Overcast
1:53 AM 55.0 °F 44.1 °F 67% 30.07 in 10.0 mi North 8.1 mph - N/A   Overcast
2:53 AM 55.0 °F 46.0 °F 72% 30.06 in 10.0 mi NW 11.5 mph - N/A   Overcast
3:53 AM 54.0 °F 45.0 °F 72% 30.06 in 10.0 mi NNW 9.2 mph - N/A   Overcast
4:53 AM 53.1 °F 46.0 °F 77% 30.06 in 10.0 mi WNW 10.4 mph - N/A   Overcast
5:53 AM 52.0 °F 46.0 °F 80% 30.07 in 10.0 mi NW 10.4 mph - N/A   Overcast
6:53 AM 52.0 °F 46.0 °F 80% 30.06 in 10.0 mi WNW 10.4 mph - N/A   Overcast
7:53 AM 55.0 °F 46.0 °F 72% 30.06 in 10.0 mi WNW 12.7 mph - N/A   Clear
8:53 AM 57.9 °F 45.0 °F 62% 30.05 in 10.0 mi WNW 13.8 mph - N/A   Mostly Cloudy
9:53 AM 62.1 °F 44.1 °F 52% 30.02 in 10.0 mi NW 16.1 mph - N/A   Scattered Clouds
10:53 AM 61.0 °F 44.1 °F 54% 30.01 in 10.0 mi NW 19.6 mph 25.3 mph 0.00 in Rain Light Rain
11:53 AM 57.0 °F 48.0 °F 72% 30.02 in 10.0 mi NNW 12.7 mph - 0.02 in Rain Light Rain
12:53 PM 55.9 °F 46.0 °F 69% 30.01 in 10.0 mi NNW 11.5 mph 24.2 mph 0.00 in Rain Light Rain
1:53 PM 59.0 °F 46.0 °F 62% 30.00 in 10.0 mi NNW 10.4 mph - 0.00 in   Mostly Cloudy
2:53 PM 59.0 °F 48.0 °F 67% 29.99 in 6.0 mi NNW 6.9 mph - 0.01 in Rain Light Rain
3:53 PM 59.0 °F 50.0 °F 72% 29.98 in 10.0 mi NNW 3.5 mph - 0.01 in   Overcast
4:53 PM 62.1 °F 48.9 °F 62% 29.95 in 10.0 mi NW 9.2 mph - 0.00 in   Mostly Cloudy
5:53 PM 61.0 °F 46.9 °F 60% 29.94 in 10.0 mi West 6.9 mph - 0.00 in Rain Light Rain
6:53 PM 62.1 °F 46.9 °F 58% 29.94 in 10.0 mi NNW 10.4 mph - 0.00 in   Overcast
7:53 PM 57.9 °F 50.0 °F 75% 29.95 in 10.0 mi North 6.9 mph - 0.00 in   Overcast
8:53 PM 55.9 °F 48.9 °F 77% 29.95 in 10.0 mi North 10.4 mph - N/A   Overcast
9:53 PM 55.9 °F 45.0 °F 67% 29.96 in 10.0 mi NNW 10.4 mph - N/A   Overcast
10:53 PM 55.0 °F 45.0 °F 69% 29.97 in 10.0 mi NNW 10.4 mph - N/A   Mostly Cloudy
11:53 PM 55.0 °F 45.0 °F 69% 29.98 in 10.0 mi NNW 9.2 mph - N/A   Overcast